Location: Wapato
(46.4478°N, 120.4212°W)
Time: 22:47:12
(UTC+00:00)

Vanguard 1 Rocket - Pass Details

Date: 18 May 2026
Orbit: 656 x 4211 km, 34.3° (Epoch: 7 June)

Event Time Altitude Azimuth Distance (km) Brightness Sun altitude
Rises 05:03:30 0° 275° (W) 6,296 12.5 -13.1°
Reaches altitude 10° 05:08:11 10° 263° (W) 5,776 11.9 -13.7°
Maximum altitude 05:22:19 26° 216° (SW) 5,592 11.2 -15.2°
Enters shadow 05:39:47 11° 172° (S) 7,307 11.4 -17.0°
